COSMOS 2117

导读 | 星芒AI

COSMOS 2117 是苏联于1992年发射的一颗军用通信卫星,用于支持俄罗斯军队的战术和战略通信需求。该卫星属于“COSMOS”系列,这一系列涵盖多种用途的卫星,包括侦察、导航和通信。COSMOS 2117 采用电子信号截获和数据中继技术,增强了军事指挥系统的实时通信能力。其具体轨道参数和任务细节未公开,但其在冷战后期和后冷战时期的军事通信体系中发挥了重要作用。

基本信息
目录编号:
21031
目录名称:
COSMOS 2117
国际标识:
1990-114D
轨道中心:
EARTH
卫星名称:
COSMOS 2117
卫星全名:
--
卫星状态:
在轨 (已飞行12730 天)
发射日期:
1990-12-22 UTC
国别 :
俄罗斯(独联体) (CIS)
星等 :
--
轨道信息
数据来源 国际轨道数据
星历时间: 2025-10-28T21:23:33+0800
18小时前
查看轨道信息
半长轴: 7780.419km
偏心率: 0.0007259
轨道倾角: 82.578°
近地点辐角 227.451°
升交点赤经 345.965°
平近点角 286.733°
近地点: 1396.636km
远地点: 1407.932km
周期: 113.832分钟
每日圈数: 12.650226
详细信息
使用方式:
暂无
2D轨道图
3D轨道图
轨道高度分析图
轨道倾角分析图
轨道综合分析图
查看轨道综合分析图